RH
61 66 70 71 70 69 69 68 67 66 68 66 66 71 76 78 86 81 79 86 69 65 58 68 68 73 65 61 66 67 65 63 68
64 66 69 69 69 68 69 69 71 72 71 71 73 78 80 86 86 88 89 85 73 71 73 76 75 76 76 71 72 74 75 70 65
68 68 69 69 70 70 72 73 74 74 74 74 74 76 80 79 84 87 91 78 68 67 74 71 72 72 72 72 74 74 76 79 80
69 71 72 72 71 73 74 74 74 74 71 68 65 75 78 82 82 78 88 75 64 72 69 67 65 68 66 68 67 70 73 73 76
76 79 78 74 76 77 78 76 76 73 64 61 74 80 78 84 82 82 89 67 70 70 68 65 65 63 65 67 66 66 65 66 68
86 88 85 82 80 80 78 77 77 71 71 66 74 73 78 83 85 88 72 64 69 67 65 63 61 62 64 62 62 64 65 66 66
88 91 88 87 86 84 78 77 74 69 66 53 52 74 80 80 81 80 69 60 66 63 63 62 63 62 60 59 59 58 60 60 61
98 98 97 98 94 96 87 77 69 63 44 37 44 70 77 80 76 71 63 64 61 58 59 57 56 55 54 52 51 52 53 53 54
99 99 98 98 98 94 83 73 54 40 34 30 38 58 73 73 90 89 78 70 60 59 55 52 50 49 48 50 51 51 53 55 56
99 99 99 98 98 92 78 63 39 33 32 31 31 44 68 82 89 94 75 73 60 54 50 48 46 44 44 48 51 52 54 55 57
98 99 98 98 97 85 73 53 36 34 32 31 31 38 66 83 88 90 87 70 58 50 45 41 41 40 41 44 47 49 53 56 57
96 98 98 97 96 76 50 38 38 38 34 35 33 35 52 74 80 82 82 77 61 44 39 38 39 38 40 43 45 47 50 53 55
95 95 96 91 82 60 44 44 44 43 40 38 37 38 38 57 71 67 75 68 58 47 37 34 33 35 36 38 41 44 45 47 50
87 90 90 77 61 48 44 46 43 42 43 36 39 45 45 41 54 59 59 58 60 56 39 38 34 31 32 35 37 40 43 44 47
82 85 79 64 55 50 46 44 47 45 43 32 41 50 52 45 49 50 44 50 46 46 46 48 40 36 32 30 34 38 41 42 45
80 77 67 59 48 43 41 44 41 45 47 47 49 53 46 47 45 46 43 43 42 42 43 42 41 40 43 38 35 38 40 40 42
84 77 63 53 52 45 42 45 50 48 50 47 55 48 42 44 39 52 43 40 43 40 34 34 36 41 46 50 45 46 42 40 43
81 73 64 50 47 49 40 48 46 51 48 42 48 56 52 48 42 47 40 36 43 40 39 37 38 39 43 49 52 53 49 47 46
88 80 64 64 65 60 67 62 66 51 47 44 34 38 44 43 36 43 44 40 34 37 40 42 43 44 51 52 55 48 47 48 50
92 79 79 74 74 78 71 73 63 59 59 52 47 40 46 39 43 39 44 45 43 42 43 46 48 46 50 54 54 50 51 54 55
Wind_Speed
10 10 10 9 8 8 8 8 7 7 6 6 6 6 7 5 1 3 3 2 1 3 5 1 2 5 3 1 2 3 5 5 3
12 11 11 10 10 9 8 8 7 6 6 6 6 6 6 4 4 4 1 3 12 12 12 13 10 13 16 5 8 7 6 4 5
12 12 11 10 10 9 9 8 7 6 5 6 7 6 7 5 5 4 2 7 11 10 10 12 14 16 16 15 16 17 16 15 18
13 12 11 10 10 9 8 7 6 5 5 6 5 6 9 6 4 3 2 9 9 12 12 12 12 15 13 12 12 14 14 15 16
11 10 9 10 9 8 7 6 5 6 6 7 8 11 10 5 4 3 2 8 11 12 11 10 11 10 11 12 11 12 11 11 12
7 7 8 8 9 8 6 6 6 8 8 10 9 9 4 4 3 2 3 8 11 11 10 9 9 9 10 11 11 11 11 11 11
6 6 9 9 8 7 7 7 7 6 3 4 7 3 4 4 3 2 6 7 10 10 9 9 10 9 10 10 10 10 9 9 10
3 3 3 3 5 2 3 4 3 5 3 4 4 5 4 2 2 3 3 8 9 8 8 9 9 9 9 9 9 9 9 9 9
4 3 4 4 3 3 3 2 4 5 5 5 5 5 4 2 1 3 7 9 8 9 9 8 8 9 8 8 8 8 8 9 9
4 3 3 3 3 3 3 4 4 4 5 4 5 5 5 4 2 1 7 9 9 8 8 8 7 6 7 7 8 8 8 9 9
5 4 4 3 4 3 4 4 4 4 4 4 4 4 4 4 3 2 3 9 8 8 7 6 5 5 6 6 6 7 7 8 8
7 5 5 4 4 5 4 4 3 4 3 4 3 4 4 4 4 3 2 4 6 7 6 5 5 4 5 6 7 7 6 7 7
7 6 4 4 4 4 4 4 3 3 2 2 1 2 3 4 4 3 3 2 2 4 5 4 3 5 6 7 7 8 6 6 7
7 6 5 6 5 4 5 2 3 3 2 3 2 1 2 3 3 4 3 3 3 1 2 3 3 3 6 7 7 8 8 8 7
9 5 6 7 5 5 3 3 2 2 3 3 3 1 1 2 3 4 2 2 3 2 2 2 3 5 6 6 8 8 11 9 7
10 7 9 8 9 9 7 4 4 1 2 4 2 1 1 2 2 3 2 2 3 2 2 1 1 3 8 8 8 10 12 11 10
10 10 10 12 7 7 7 6 4 2 3 4 2 1 2 1 1 1 3 3 3 3 3 2 3 3 3 5 9 12 13 12 12
13 12 11 11 10 10 11 7 8 5 1 2 4 2 4 1 1 2 1 3 2 2 2 2 3 3 3 5 7 10 11 13 14
11 10 10 11 8 10 8 6 4 6 5 2 1 3 3 4 1 1 1 1 3 2 1 1 2 3 3 5 7 9 10 12 15
10 11 10 10 7 8 10 8 7 4 5 4 3 2 2 3 3 2 2 2 2 2 3 0 2 3 4 3 6 12 14 16 18
Wind_Direction
135 139 132 125 131 126 119 117 114 113 107 100 84 69 45 34 69 127 232 275 109 50 52 134 8 313 254 43 130 271 292 289 259
136 139 143 146 143 139 136 132 128 123 113 97 77 61 56 63 96 119 129 239 66 67 57 60 46 47 48 93 31 9 344 325 285
145 145 147 149 148 148 145 142 135 126 104 82 81 78 77 88 84 67 45 79 66 55 70 63 59 54 54 53 46 46 42 46 44
156 156 158 158 154 150 148 146 138 118 91 87 97 112 111 94 85 72 52 75 78 84 70 64 63 56 51 51 51 50 45 41 43
163 164 169 167 161 158 158 156 142 103 79 77 84 104 99 88 69 53 87 84 88 76 74 74 76 66 56 54 51 48 46 46 43
166 167 181 171 170 166 162 153 126 97 68 85 94 86 80 72 55 20 76 96 90 77 72 70 73 69 61 55 54 52 50 48 43
170 176 184 179 176 170 165 151 124 100 81 80 77 86 85 73 51 8 67 115 101 81 72 72 71 69 62 53 50 49 47 45 41
170 172 179 178 171 155 125 108 101 107 110 94 93 104 89 74 43 354 40 120 104 87 80 75 73 66 59 50 44 41 36 34 31
171 173 177 173 159 161 148 135 119 104 100 104 100 104 105 95 56 7 56 113 110 104 89 81 76 67 57 47 39 36 33 28 21
167 178 177 173 159 166 162 142 126 108 100 89 105 111 117 114 98 44 85 103 113 109 101 86 71 58 48 42 35 27 23 21 15
180 174 193 176 182 158 153 155 138 117 114 103 107 118 127 127 120 102 89 111 120 117 105 88 71 59 45 44 33 26 27 18 10
183 182 183 188 176 147 129 116 110 107 93 109 121 124 139 144 139 123 96 98 111 123 111 86 73 53 34 27 15 17 18 8 3
185 179 187 169 156 146 144 144 110 109 125 130 132 122 134 157 160 145 128 121 96 120 115 86 71 61 23 5 2 360 352 343 344
177 173 175 155 151 157 156 131 131 143 122 136 94 88 118 170 154 164 161 168 133 132 148 116 87 44 7 4 360 346 340 328 323
173 168 159 157 152 146 152 138 79 133 145 106 93 44 65 138 163 185 167 175 154 152 127 44 345 352 345 347 347 339 335 324 314
176 178 163 166 171 175 160 135 134 103 146 106 42 31 9 129 155 165 179 203 183 158 132 123 353 333 332 329 328 331 330 319 309
175 174 183 174 154 154 167 161 133 120 173 139 102 174 316 349 48 144 174 177 160 140 122 55 8 346 321 308 311 323 316 314 306
186 182 179 178 172 179 181 168 150 145 167 219 144 115 219 140 359 27 106 138 124 123 88 56 36 1 349 342 325 319 310 304 301
187 191 184 181 188 175 187 173 159 132 157 139 140 68 141 162 215 359 244 89 134 130 353 21 16 37 30 19 356 352 332 314 311
176 177 183 187 185 169 175 179 171 155 142 145 153 119 53 77 121 202 285 333 233 238 192 216 106 81 40 3 349 344 330 320 312